| time (UTC) | temp F | wind direction | speed MPH | gust MPH | rain 1hr in | rain 24hr in | rain mn in | humidity % | barometer mb |
| 20260903102711 | 94 | 281 | 3.0 | 15.0 | 0.00 | 0.00 | 0.00 | 36 | 988.8 |
| 20260903101811 | 94 | 267 | 2.0 | 7.0 | 0.00 | 0.00 | 0.00 | 35 | 988.8 |
| 20260903100911 | 94 | 237 | 2.0 | 11.0 | 0.00 | 0.00 | 0.00 | 36 | 988.8 |
| 20260903100011 | 93 | 239 | 4.0 | 8.0 | 0.00 | 0.00 | 0.00 | 37 | 988.8 |
| 20260903095111 | 93 | 253 | 4.0 | 8.0 | 0.00 | 0.00 | 0.00 | 37 | 989.0 |
| 20260903094211 | 93 | 257 | 2.0 | 6.0 | 0.00 | 0.00 | 0.00 | 36 | 989.1 |
| 20260903093311 | 92 | 248 | 4.0 | 7.0 | 0.00 | 0.00 | 0.00 | 37 | 989.1 |
| 20260903092411 | 93 | 254 | 2.0 | 9.0 | 0.00 | 0.00 | 0.00 | 36 | 989.2 |
| 20260903091511 | 93 | 255 | 1.0 | 14.0 | 0.00 | 0.00 | 0.00 | 36 | 989.2 |
| 20260903090611 | 92 | 256 | 4.0 | 9.0 | 0.00 | 0.00 | 0.00 | 37 | 989.4 |
| 20260903085711 | 92 | 278 | 2.0 | 7.0 | 0.00 | 0.00 | 0.00 | 37 | 989.6 |
| 20260903084811 | 93 | 256 | 3.0 | 7.0 | 0.00 | 0.00 | 0.00 | 36 | 989.5 |
| 20260903083911 | 92 | 255 | 2.0 | 7.0 | 0.00 | 0.00 | 0.00 | 36 | 989.6 |
| 20260903083011 | 93 | 272 | 2.0 | 4.0 | 0.00 | 0.00 | 0.00 | 35 | 989.7 |
| 20260903082111 | 93 | 307 | 2.0 | 7.0 | 0.00 | 0.00 | 0.00 | 34 | 989.7 |
| 20260903081211 | 91 | 237 | 3.0 | 8.0 | 0.00 | 0.00 | 0.00 | 35 | 989.5 |
| 20260903074511 | 88 | 88 | 1.0 | 6.0 | 0.00 | 0.00 | 0.00 | 42 | 989.6 |
| 20260903073611 | 88 | 121 | 1.0 | 4.0 | 0.00 | 0.00 | 0.00 | 42 | 989.5 |
| 20260903072711 | 88 | 271 | 1.0 | 4.0 | 0.00 | 0.00 | 0.00 | 42 | 989.6 |
| 20260903071811 | 89 | 267 | 2.0 | 6.0 | 0.00 | 0.00 | 0.00 | 42 | 989.6 |
| 20260903070911 | 89 | 271 | 2.0 | 7.0 | 0.00 | 0.00 | 0.00 | 43 | 989.6 |
| 20260903070011 | 88 | 252 | 2.0 | 4.0 | 0.00 | 0.00 | 0.00 | 44 | 989.5 |
| 20260903065111 | 87 | 281 | 0.0 | 4.0 | 0.00 | 0.00 | 0.00 | 44 | 989.5 |
| 20260903064211 | 87 | 264 | 2.0 | 4.0 | 0.00 | 0.00 | 0.00 | 45 | 989.5 |
| 20260903063311 | 86 | 261 | 2.0 | 7.0 | 0.00 | 0.00 | 0.00 | 46 | 989.6 |
| 20260903062411 | 85 | 258 | 2.0 | 4.0 | 0.00 | 0.00 | 0.00 | 47 | 989.6 |
| 20260903055711 | 84 | 270 | 1.0 | 6.0 | 0.00 | 0.00 | 0.00 | 49 | 989.5 |
| 20260903054811 | 83 | 266 | 3.0 | 6.0 | 0.00 | 0.00 | 0.00 | 50 | 989.5 |
| 20260903053014 | 83 | 245 | 1.0 | 4.0 | 0.00 | 0.00 | 0.00 | 49 | 989.7 |
| 20260903052111 | 83 | 215 | 2.0 | 4.0 | 0.00 | 0.00 | 0.00 | 48 | 989.9 |
| 20260903051211 | 83 | 245 | 2.0 | 4.0 | 0.00 | 0.00 | 0.00 | 48 | 989.9 |
| 20260903050311 | 83 | 259 | 2.0 | 6.0 | 0.00 | 0.00 | 0.00 | 48 | 989.9 |
| 20260903045411 | 83 | 257 | 2.0 | 6.0 | 0.00 | 0.00 | 0.00 | 46 | 989.7 |
| 20260903044511 | 83 | 285 | 0.0 | 4.0 | 0.00 | 0.00 | 0.00 | 44 | 989.7 |
| 20260903043611 | 83 | 75 | 1.0 | 6.0 | 0.00 | 0.00 | 0.00 | 44 | 989.7 |
| 20260903041811 | 83 | 292 | 2.0 | 4.0 | 0.00 | 0.00 | 0.00 | 44 | 989.5 |
| 20260903040911 | 83 | 306 | 0.0 | 4.0 | 0.00 | 0.00 | 0.00 | 44 | 989.4 |
| 20260903035111 | 83 | 302 | 1.0 | 4.0 | 0.00 | 0.00 | 0.00 | 40 | 989.2 |
| 20260903034211 | 83 | 301 | 0.0 | 4.0 | 0.00 | 0.00 | 0.00 | 40 | 989.1 |
| 20260903033311 | 83 | 59 | 2.0 | 2.0 | 0.00 | 0.00 | 0.00 | 40 | 989.1 |
| 20260903032411 | 84 | 98 | 0.0 | 2.0 | 0.00 | 0.00 | 0.00 | 40 | 989.0 |
| 20260903031511 | 84 | 96 | 1.0 | 4.0 | 0.00 | 0.00 | 0.00 | 39 | 989.0 |
| 20260903030611 | 84 | 95 | 1.0 | 4.0 | 0.00 | 0.00 | 0.00 | 39 | 989.1 |
| 20260903025711 | 84 | 102 | 0.0 | 4.0 | 0.00 | 0.00 | 0.00 | 39 | 989.1 |
| 20260903023911 | 84 | 249 | 2.0 | 4.0 | 0.00 | 0.00 | 0.00 | 39 | 989.1 |
| 20260903023011 | 84 | 277 | 2.0 | 4.0 | 0.00 | 0.00 | 0.00 | 38 | 989.3 |
| 20260903021211 | 84 | 264 | 2.0 | 4.0 | 0.00 | 0.00 | 0.00 | 38 | 989.2 |
| 20260903020311 | 84 | 251 | 1.0 | 4.0 | 0.00 | 0.00 | 0.00 | 38 | 989.2 |
| 20260903015411 | 84 | 277 | 1.0 | 4.0 | 0.00 | 0.00 | 0.00 | 38 | 989.1 |
| 20260903014511 | 83 | 270 | 0.0 | 2.0 | 0.00 | 0.00 | 0.00 | 39 | 989.1 |
| 20260903013611 | 82 | 0 | 0.0 | 0.0 | 0.00 | 0.00 | 0.00 | 40 | 989.1 |
| 20260903012711 | 82 | 270 | 0.0 | 2.0 | 0.00 | 0.00 | 0.00 | 40 | 989.1 |
| 20260903011811 | 83 | 270 | 0.0 | 2.0 | 0.00 | 0.00 | 0.00 | 40 | 989.1 |
| 20260903010911 | 83 | 270 | 0.0 | 2.0 | 0.00 | 0.00 | 0.00 | 40 | 989.1 |
| 20260903010011 | 83 | 270 | 1.0 | 2.0 | 0.00 | 0.00 | 0.00 | 39 | 989.1 |
| 20260903005111 | 83 | 267 | 0.0 | 2.0 | 0.00 | 0.00 | 0.00 | 40 | 989.1 |
| 20260903001511 | 83 | 292 | 1.0 | 4.0 | 0.00 | 0.00 | 0.00 | 39 | 989.1 |
| 20260903000611 | 84 | 295 | 1.0 | 4.0 | 0.00 | 0.00 | 0.00 | 39 | 989.1 |
| 20260902235711 | 84 | 308 | 2.0 | 4.0 | 0.00 | 0.00 | 0.00 | 39 | 989.2 |
| 20260902234811 | 84 | 307 | 1.0 | 7.0 | 0.00 | 0.00 | 0.00 | 39 | 989.1 |
| 20260902233911 | 84 | 289 | 1.0 | 4.0 | 0.00 | 0.00 | 0.00 | 39 | 989.1 |
| 20260902232111 | 84 | 278 | 1.0 | 2.0 | 0.00 | 0.00 | 0.00 | 39 | 989.2 |
| 20260902231211 | 84 | 301 | 0.0 | 4.0 | 0.00 | 0.00 | 0.00 | 39 | 989.2 |
| 20260902230311 | 84 | 292 | 0.0 | 4.0 | 0.00 | 0.00 | 0.00 | 38 | 989.4 |
| 20260902224511 | 83 | 231 | 0.0 | 2.0 | 0.00 | 0.00 | 0.00 | 39 | 989.4 |
| 20260902223611 | 83 | 271 | 1.0 | 2.0 | 0.00 | 0.00 | 0.00 | 39 | 989.4 |
| 20260902222711 | 84 | 260 | 1.0 | 2.0 | 0.00 | 0.00 | 0.00 | 38 | 989.5 |
| 20260902221811 | 84 | 228 | 0.0 | 2.0 | 0.00 | 0.00 | 0.00 | 38 | 989.5 |
| 20260902220911 | 84 | 258 | 0.0 | 2.0 | 0.00 | 0.00 | 0.00 | 38 | 989.6 |
| 20260902220011 | 84 | 270 | 0.0 | 2.0 | 0.00 | 0.00 | 0.00 | 38 | 989.5 |
| 20260902215111 | 84 | 270 | 0.0 | 2.0 | 0.00 | 0.00 | 0.00 | 37 | 989.5 |
| 20260902214211 | 84 | 270 | 0.0 | 2.0 | 0.00 | 0.00 | 0.00 | 37 | 989.6 |
| 20260902213311 | 85 | 275 | 0.0 | 2.0 | 0.00 | 0.00 | 0.00 | 37 | 989.6 |
| 20260902212411 | 85 | 292 | 0.0 | 4.0 | 0.00 | 0.00 | 0.00 | 37 | 989.6 |
| 20260902211511 | 85 | 285 | 2.0 | 4.0 | 0.00 | 0.00 | 0.00 | 36 | 989.7 |
| 20260902210611 | 85 | 271 | 2.0 | 2.0 | 0.00 | 0.00 | 0.00 | 36 | 989.8 |
| 20260902205711 | 85 | 270 | 1.0 | 2.0 | 0.00 | 0.00 | 0.00 | 36 | 989.7 |
| 20260902204811 | 85 | 281 | 1.0 | 2.0 | 0.00 | 0.00 | 0.00 | 36 | 989.8 |
| 20260902203911 | 85 | 292 | 0.0 | 2.0 | 0.00 | 0.00 | 0.00 | 37 | 989.7 |
| 20260902203011 | 85 | 291 | 0.0 | 2.0 | 0.00 | 0.00 | 0.00 | 36 | 989.8 |
| 20260902202111 | 85 | 280 | 1.0 | 2.0 | 0.00 | 0.00 | 0.00 | 36 | 989.7 |
| 20260902201211 | 86 | 309 | 0.0 | 2.0 | 0.00 | 0.00 | 0.00 | 36 | 989.7 |
| 20260902200311 | 86 | 307 | 0.0 | 6.0 | 0.00 | 0.00 | 0.00 | 35 | 989.7 |
| 20260902195411 | 86 | 294 | 1.0 | 2.0 | 0.00 | 0.00 | 0.00 | 35 | 989.7 |
| 20260902194511 | 86 | 261 | 1.0 | 2.0 | 0.00 | 0.00 | 0.00 | 35 | 989.7 |
| 20260902193611 | 86 | 271 | 0.0 | 2.0 | 0.00 | 0.00 | 0.00 | 35 | 989.8 |
| 20260902192711 | 86 | 283 | 0.0 | 2.0 | 0.00 | 0.00 | 0.00 | 35 | 989.8 |
| 20260902191811 | 86 | 292 | 1.0 | 2.0 | 0.00 | 0.00 | 0.00 | 35 | 989.8 |
| 20260902190911 | 86 | 287 | 0.0 | 4.0 | 0.00 | 0.00 | 0.00 | 35 | 989.7 |
| 20260902190011 | 87 | 297 | 1.0 | 4.0 | 0.00 | 0.00 | 0.00 | 35 | 989.7 |
| 20260902184211 | 87 | 288 | 1.0 | 4.0 | 0.00 | 0.00 | 0.00 | 34 | 989.8 |
| 20260902183311 | 87 | 289 | 0.0 | 4.0 | 0.00 | 0.00 | 0.00 | 34 | 989.7 |
| 20260902182411 | 87 | 265 | 2.0 | 4.0 | 0.00 | 0.00 | 0.00 | 33 | 989.6 |
| 20260902180611 | 88 | 270 | 1.0 | 4.0 | 0.00 | 0.00 | 0.00 | 33 | 989.6 |
| 20260902175711 | 88 | 256 | 1.0 | 4.0 | 0.00 | 0.00 | 0.00 | 33 | 989.4 |
| 20260902174811 | 88 | 251 | 2.0 | 4.0 | 0.00 | 0.00 | 0.00 | 33 | 989.3 |
| 20260902173911 | 89 | 228 | 2.0 | 4.0 | 0.00 | 0.00 | 0.00 | 32 | 989.2 |
| 20260902173011 | 89 | 253 | 1.0 | 6.0 | 0.00 | 0.00 | 0.00 | 32 | 989.4 |
| 20260902172111 | 89 | 268 | 2.0 | 7.0 | 0.00 | 0.00 | 0.00 | 32 | 989.2 |
| 20260902171211 | 89 | 276 | 2.0 | 7.0 | 0.00 | 0.00 | 0.00 | 32 | 989.2 |
| 20260902170311 | 89 | 239 | 3.0 | 7.0 | 0.00 | 0.00 | 0.00 | 32 | 989.1 |
| 20260902165411 | 90 | 240 | 3.0 | 7.0 | 0.00 | 0.00 | 0.00 | 32 | 989.1 |
| 20260902164511 | 90 | 213 | 3.0 | 8.0 | 0.00 | 0.00 | 0.00 | 32 | 989.1 |
| 20260902163611 | 91 | 252 | 3.0 | 8.0 | 0.00 | 0.00 | 0.00 | 31 | 989.3 |
| 20260902162711 | 91 | 244 | 2.0 | 7.0 | 0.00 | 0.00 | 0.00 | 31 | 989.4 |
| 20260902161811 | 92 | 255 | 2.0 | 6.0 | 0.00 | 0.00 | 0.00 | 31 | 989.6 |
| 20260902160911 | 93 | 246 | 2.0 | 6.0 | 0.00 | 0.00 | 0.00 | 30 | 989.7 |
| 20260902160011 | 94 | 256 | 2.0 | 6.0 | 0.00 | 0.00 | 0.00 | 29 | 989.7 |
| 20260902155111 | 94 | 262 | 2.0 | 7.0 | 0.00 | 0.00 | 0.00 | 29 | 989.9 |
| 20260902154211 | 94 | 261 | 2.0 | 7.0 | 0.00 | 0.00 | 0.00 | 29 | 989.8 |
| 20260902153311 | 94 | 256 | 2.0 | 7.0 | 0.00 | 0.00 | 0.00 | 29 | 989.8 |
| 20260902152411 | 95 | 240 | 3.0 | 8.0 | 0.00 | 0.00 | 0.00 | 28 | 989.7 |
| 20260902151511 | 96 | 259 | 3.0 | 6.0 | 0.00 | 0.00 | 0.00 | 28 | 989.7 |
| 20260902150611 | 97 | 258 | 2.0 | 7.0 | 0.00 | 0.00 | 0.00 | 27 | 989.7 |
| 20260902145711 | 97 | 230 | 2.0 | 6.0 | 0.00 | 0.00 | 0.00 | 27 | 989.9 |
| 20260902144811 | 96 | 286 | 3.0 | 8.0 | 0.00 | 0.00 | 0.00 | 27 | 989.8 |
| 20260902143911 | 96 | 278 | 3.0 | 7.0 | 0.00 | 0.00 | 0.00 | 27 | 990.0 |
| 20260902143011 | 96 | 266 | 4.0 | 8.0 | 0.00 | 0.00 | 0.00 | 27 | 990.0 |
| 20260902141211 | 96 | 223 | 3.0 | 9.0 | 0.00 | 0.00 | 0.00 | 26 | 990.1 |
| 20260902140311 | 96 | 264 | 3.0 | 11.0 | 0.00 | 0.00 | 0.00 | 26 | 990.3 |
| 20260902134511 | 96 | 251 | 6.0 | 9.0 | 0.00 | 0.00 | 0.00 | 26 | 990.5 |
| 20260902133611 | 97 | 265 | 3.0 | 9.0 | 0.00 | 0.00 | 0.00 | 26 | 990.6 |
| 20260902131811 | 96 | 259 | 4.0 | 9.0 | 0.00 | 0.00 | 0.00 | 25 | 990.7 |
| 20260902130911 | 98 | 267 | 5.0 | 9.0 | 0.00 | 0.00 | 0.00 | 25 | 990.8 |
| 20260902130011 | 97 | 253 | 4.0 | 9.0 | 0.00 | 0.00 | 0.00 | 24 | 990.9 |
| 20260902125111 | 97 | 263 | 4.0 | 8.0 | 0.00 | 0.00 | 0.00 | 25 | 991.0 |
| 20260902124211 | 97 | 264 | 3.0 | 11.0 | 0.00 | 0.00 | 0.00 | 25 | 991.1 |
| 20260902123311 | 97 | 240 | 2.0 | 9.0 | 0.00 | 0.00 | 0.00 | 25 | 991.1 |
| 20260902122411 | 97 | 217 | 4.0 | 13.0 | 0.00 | 0.00 | 0.00 | 25 | 991.2 |
| 20260902121511 | 97 | 200 | 4.0 | 9.0 | 0.00 | 0.00 | 0.00 | 25 | 991.3 |
| 20260902120611 | 97 | 205 | 3.0 | 9.0 | 0.00 | 0.00 | 0.00 | 24 | 991.4 |
| 20260902115711 | 96 | 253 | 4.0 | 9.0 | 0.00 | 0.00 | 0.00 | 25 | 991.5 |
| 20260902114811 | 97 | 249 | 4.0 | 9.0 | 0.00 | 0.00 | 0.00 | 25 | 991.6 |
| 20260902113911 | 96 | 230 | 5.0 | 9.0 | 0.00 | 0.00 | 0.00 | 25 | 991.6 |
| 20260902113011 | 96 | 244 | 4.0 | 11.0 | 0.00 | 0.00 | 0.00 | 25 | 991.7 |
| 20260902112111 | 96 | 248 | 4.0 | 11.0 | 0.00 | 0.00 | 0.00 | 24 | 991.8 |
| 20260902111211 | 96 | 250 | 3.0 | 11.0 | 0.00 | 0.00 | 0.00 | 24 | 991.8 |
| 20260902105411 | 96 | 251 | 4.0 | 11.0 | 0.00 | 0.00 | 0.00 | 24 | 991.7 |
| 20260902103611 | 97 | 252 | 3.0 | 9.0 | 0.00 | 0.00 | 0.00 | 23 | 991.9 |